Location: Gisborne
(38.6530°S, 178.0040°E)
Time: 01:57:42
(UTC+13:00)

Resurs 1-3 - Pass Details

Date: 24 January 2019
Orbit: 630 x 632 km, 98.0° (Epoch: 13 October)

Event Time Altitude Azimuth Distance (km) Brightness Sun altitude
Rises 21:46:23 0° 163° (SSE) 2,961 7.3 -13.5°
Reaches altitude 10° 21:48:39 10° 157° (SSE) 2,045 6.4 -13.9°
Maximum altitude 21:53:01 52° 80° (E) 793 3.8 -14.5°
Enters shadow 21:56:25 16° 7° (N) 1,670 5.3 -15.0°
